This is the latest recevied weather packets stored in our database for station/object KO6MEX-13. If no packets are shown the sender has not sent any weather packets the latest 10 day(s).
| Time | Temp. | Humidity | Pressure | Rain* | Wind** | Luminosity | Snow |
|---|---|---|---|---|---|---|---|
| 1777854006 | 16.67° C | 63% | 1017.4 hPa | 0 mm | - | 264 W/m² | - |
| 1777853703 | 17.22° C | 60% | 1017.1 hPa | 0 mm | - | 274 W/m² | - |
| 1777853399 | 17.22° C | 60% | 1017 hPa | 0 mm | - | 469 W/m² | - |
| 1777853097 | 17.78° C | 59% | 1017 hPa | 0 mm | - | 327 W/m² | - |
| 1777852794 | 17.78° C | 58% | 1017 hPa | 0 mm | - | 557 W/m² | - |
| 1777852492 | 17.22° C | 59% | 1016.9 hPa | 0 mm | - | 446 W/m² | - |
| 1777852188 | 17.78° C | 57% | 1017.1 hPa | 0 mm | - | 572 W/m² | - |
| 1777851886 | 17.78° C | 59% | 1017.3 hPa | 0 mm | - | 641 W/m² | - |
| 1777851584 | 17.78° C | 56% | 1016.8 hPa | 0 mm | - | 302 W/m² | - |
| 1777851280 | 18.33° C | 56% | 1016.8 hPa | 0 mm | - | 319 W/m² | - |
| 1777850977 | 17.78° C | 57% | 1017 hPa | 0 mm | - | 377 W/m² | - |
| 1777850674 | 18.33° C | 55% | 1016.9 hPa | 0 mm | - | 521 W/m² | - |
| 1777850372 | 18.33° C | 54% | 1017 hPa | 0 mm | - | 568 W/m² | - |
| 1777850069 | 18.33° C | 54% | 1016.9 hPa | 0 mm | - | 574 W/m² | - |
| 1777849765 | 17.78° C | 55% | 1016.8 hPa | 0 mm | - | 543 W/m² | - |
| 1777849462 | 17.78° C | 56% | 1017.1 hPa | 0 mm | - | 560 W/m² | - |
| 1777849160 | 17.78° C | 55% | 1017.1 hPa | 0 mm | - | 577 W/m² | - |
| 1777848856 | 17.78° C | 51% | 1017.1 hPa | 0 mm | - | 584 W/m² | - |
| 1777848552 | 18.33° C | 51% | 1017.1 hPa | 0 mm | - | 588 W/m² | - |
| 1777848249 | 18.89° C | 51% | 1017.1 hPa | 0 mm | - | 598 W/m² | - |
| 1777847947 | 18.33° C | 51% | 1017 hPa | 0 mm | - | 600 W/m² | - |
| 1777847645 | 18.33° C | 49% | 1017.2 hPa | 0 mm | - | 609 W/m² | - |
| 1777847339 | 18.33° C | 50% | 1017.2 hPa | 0 mm | - | 642 W/m² | - |
| 1777847038 | 18.89° C | 50% | 1017 hPa | 0 mm | - | 602 W/m² | - |
| 1777846736 | 18.89° C | 51% | 1017.2 hPa | 0 mm | - | 580 W/m² | - |
* Rain latest hour (hover to see other rain measurements)
** Current wind speed in m/s (hover to see current wind gust speed)